Location: Unspecified
(51.3947°N, 0.0000°E)
Time: 21:20:27
(UTC+00:00)

Tiangong 2 - Pass Details

Date: 30 June 2019
Orbit: 378 x 386 km, 42.8° (Epoch: 16 July)

Event Time Altitude Azimuth Distance (km) Brightness Sun altitude
Exits shadow 02:27:29 10° 184° (S) 1,373 3.3 -9.0°
Maximum altitude 02:28:38 12° 162° (SSE) 1,284 3.3 -8.9°
Drops below altitude 10° 02:29:55 10° 138° (SE) 1,396 3.7 -8.8°
Sets 02:32:59 0° 106° (ESE) 2,254 5.2 -8.5°
